Find Starlink 37136

NORAD ID: 68347 Int'l Des: 2026-059 Owner: SPXS Country: US Constellation: starlink operational
LEOCIRCULAR

Live-Position

3D-Globus wird geladen...

Über Starlink 37136

Beschreibung wird geladen...

Nächste Überflüge

Passes for default location (London). Set your location on the main map for personalized predictions.

Höhenverlauf

Loading altitude history...

Zweizeiliger Elementsatz

1 68347U 26059AC 26127.23359557 .00013420 00000-0 46445-3 0 9993
2 68347 53.1593 75.9959 0001351 97.4689 262.6466 15.30197747 7141
Epoch: 7. Mai 2026 • Age: 11 hours

Aktueller Status

Höhe 487.7 km
Geschwindigkeit 7.62 km/s
Subsatellitenpunkt -36.60°S, 70.76°W
Startdatum 22. März 2026
Alter 0.1 years
Typ internet

Technische Details

Klassifizierung Payload
Masse 575.00 kg
Trockenmasse 530.00 kg
Gesamtmasse 575.00 kg
Länge 0.30 m
Durchmesser 4.10 m
Spannweite 29.00 m
Form Box + pan
Hersteller SPXS
Bus-Typ Starlink V2MO
Phasenstatus In Orbit
Besitzer/Staat SPXS/US

Most Searched